Weather History for KDFW - December, 2013

Change the Weather History Date:

Sunday, December 15, 2013

  Actual Average Record
Temperature  
Mean Temperature 44 °F 47 °F  
Max Temperature 61 °F 57 °F 83 °F (1908)
Min Temperature 26 °F 37 °F 9 °F (1901)
Degree Days  
Heating Degree Days 21 18  
Month to date heating degree days 355 250  
Since 1 July heating degree days 756 604  
Cooling Degree Days 0 0  
Month to date cooling degree days 0 0  
Year to date cooling degree days 2930 2752  
Moisture  
Dew Point 28 °F    
Average Humidity 56    
Maximum Humidity 85    
Minimum Humidity 27    
Precipitation  
Precipitation 0.00 in 0.09 in 1.35 in (1959)
Month to date precipitation 1.26 1.28  
Year to date precipitation 27.90 34.87  
Snow  
Snow 0.00 in 0.00 in 2.80 in (1932)
Month to date snowfall 2.1 0.1  
Since 1 July snowfall 2.1 0.1  
Snow Depth 0.00 in    
Sea Level Pressure  
Sea Level Pressure 30.29 in    
Wind  
Wind Speed 6 mph (SSW)    
Max Wind Speed 13 mph    
Max Gust Speed 14 mph    
Visibility 9 miles    
Events      
T = Trace of Precipitation, MM = Missing Value Source: NWS Daily Summary

Daily Weather History Graph

Daily Weather History Graph

Search for Another Location

Airport or City:

Trip Planner

Search our weather history database for the weather conditions in past years. The results will help you decide how hot, cold, wet, or windy it might be!

Date:

Astronomy

Dec. 15, 2013 Rise Set
Actual Time 7:23 AM CST 5:23 PM CST
Civil Twilight 6:56 AM CST 5:50 PM CST
Nautical Twilight 6:25 AM CST 6:21 PM CST
Astronomical Twilight 5:55 AM CST 6:51 PM CST
Moon 4:25 PM CST (12/15) 5:44 AM CST (12/15)
Length of Visible Light 10h 54m
Length of Day
9h 59m
Waxing Gibbous, 98% of the Moon is Illuminated
Dec 15
Waxing Gibbous
Dec 17
Full
Dec 25
Last Quarter
Jan 1
New
Jan 7
First Quarter

Hourly Weather History & Observations

Time (CST) Temp. Windchill Dew Point Humidity Pressure Visibility Wind Dir Wind Speed Gust Speed Precip Events Conditions
12:53 AM 33.1 °F 28.7 °F 25.0 °F 72% 30.33 in 10.0 mi WNW 4.6 mph - N/A   Clear
1:53 AM 28.9 °F 22.8 °F 24.1 °F 82% 30.32 in 8.0 mi SSW 5.8 mph - N/A   Clear
2:53 AM 32.0 °F 28.7 °F 25.0 °F 75% 30.32 in 9.0 mi WNW 3.5 mph - N/A   Clear
3:53 AM 27.0 °F - 21.9 °F 81% 30.32 in 9.0 mi Calm Calm - N/A   Clear
4:53 AM 28.9 °F - 24.1 °F 82% 30.31 in 7.0 mi Calm Calm - N/A   Clear
5:53 AM 27.0 °F 20.5 °F 23.0 °F 85% 30.32 in 7.0 mi SSW 5.8 mph - N/A   Clear
6:53 AM 27.0 °F 21.6 °F 23.0 °F 85% 30.33 in 7.0 mi SSW 4.6 mph - N/A   Clear
7:53 AM 28.0 °F 22.8 °F 24.1 °F 85% 30.34 in 6.0 mi SW 4.6 mph - N/A   Clear
8:53 AM 35.1 °F 30.1 °F 28.9 °F 78% 30.35 in 6.0 mi SSW 5.8 mph - N/A   Haze
9:53 AM 39.9 °F 36.7 °F 30.9 °F 70% 30.36 in 8.0 mi South 4.6 mph - N/A   Clear
10:53 AM 50.0 °F - 30.0 °F 46% 30.35 in 10.0 mi SSW 6.9 mph - N/A   Clear
11:53 AM 54.0 °F - 28.0 °F 37% 30.32 in 10.0 mi SW 8.1 mph - N/A   Clear
12:53 PM 57.0 °F - 28.0 °F 33% 30.28 in 10.0 mi West 9.2 mph - N/A   Clear
1:53 PM 59.0 °F - 28.9 °F 32% 30.27 in 10.0 mi WSW 10.4 mph - N/A   Partly Cloudy
2:53 PM 60.1 °F - 28.0 °F 30% 30.25 in 10.0 mi Variable 3.5 mph - N/A   Partly Cloudy
3:53 PM 61.0 °F - 26.1 °F 26% 30.24 in 10.0 mi Calm Calm - N/A   Partly Cloudy
4:53 PM 55.0 °F - 30.0 °F 38% 30.22 in 10.0 mi South 6.9 mph - N/A   Partly Cloudy
5:53 PM 48.0 °F - 28.0 °F 46% 30.24 in 10.0 mi South 4.6 mph - N/A   Clear
6:53 PM 48.9 °F - 28.9 °F 46% 30.23 in 10.0 mi South 8.1 mph - N/A   Clear
7:53 PM 46.9 °F - 30.0 °F 52% 30.25 in 10.0 mi South 9.2 mph - N/A   Clear
8:53 PM 43.0 °F 36.8 °F 30.9 °F 62% 30.25 in 10.0 mi South 11.5 mph - N/A   Clear
9:53 PM 42.1 °F 36.6 °F 32.0 °F 67% 30.25 in 10.0 mi South 9.2 mph - N/A   Clear
10:53 PM 41.0 °F 34.7 °F 33.1 °F 73% 30.25 in 10.0 mi South 10.4 mph - N/A   Clear
11:53 PM 41.0 °F 34.7 °F 33.1 °F 73% 30.23 in 10.0 mi SSW 10.4 mph - N/A   Clear